星链-35108(STARLINK-35108)

导读

STARLINK-35108是美国SpaceX星链星座的成员卫星,于北京时间2025年9月25日发射入轨,延续了星链星座低轨卫星互联网建设布局。作为星链批量部署单元,该卫星承担全球范围高速网络接入服务任务,尤其可为偏远地区、海上及航空场景提供通信覆盖,进一步扩充了星链星座的服务容量与覆盖密度。

基本信息
目录编号:
65738
目录名称:
STARLINK-35108
国际标识:
2025-216E
轨道中心:
EARTH
卫星名称:
星链-35108
卫星全名:
星链-35108(STARLINK-35108)
卫星状态:
在轨 (已飞行344 天)
发射日期:
2025-09-25 UTC
国别 :
美国 (US)
星等 :
--
轨道信息
数据来源 国际轨道数据
星历时间: 2026-09-03T23:52:04+0800
19小时前
查看轨道信息
半长轴: 6840.808km
偏心率: 0.0000296
轨道倾角: 53.159°
近地点辐角 101.917°
升交点赤经 224.689°
平近点角 258.187°
近地点: 462.468km
远地点: 462.874km
周期: 93.847分钟
每日圈数: 15.344111
详细信息
固有亮度:
5
最大亮度:
2.5
卫星平台:
Starlink V1.0
覆盖范围:
全球
运营商:
太空探索技术公司
运营商所在国:
美国
制造商(研发单位):
太空探索技术公司
制造商所在国:
美国
使用方式:
暂无
卫星简介
Starlink 计划是 SpaceX 推出的全球卫星互联网项目,通过发射低轨道卫星,为全球尤其是偏远地区提供高速、低延迟的互联网服务。自 2019 年起,Starlink 已部署数千颗卫星,旨在缩小全球数字鸿沟,推动互联网普及。该项目还为军事、航空等行业提供通信支持,带来广泛经济效益。
2D轨道图
3D轨道图
轨道高度分析图
轨道倾角分析图
轨道综合分析图
查看轨道综合分析图